Location: Grand Moustoir
(47.8355°N, 3.3120°W)
Time: 09:24:35
(UTC+00:00)

Cosmos 2341 Rocket - Pass Details

Date: 20 January 2020
Orbit: 967 x 1005 km, 82.9° (Epoch: 27 February)

Event Time Altitude Azimuth Distance (km) Brightness Sun altitude
Rises 05:30:03 0° 352° (N) 3,707 6.9 -23.8°
Reaches altitude 10° 05:32:36 10° 354° (N) 2,749 6.2 -23.4°
Maximum altitude 05:38:54 74° 79° (E) 1,017 4.2 -22.3°
Drops below altitude 10° 05:45:06 10° 165° (SSE) 2,708 6.6 -21.3°
Sets 05:47:36 0° 167° (SSE) 3,648 7.3 -20.9°
